This is the latest recevied weather packets stored in our database for station/object AI5KP-13. If no packets are shown the sender has not sent any weather packets the latest 10 day(s).
| Time | Temp. | Humidity | Pressure | Rain* | Wind** | Luminosity | Snow |
|---|---|---|---|---|---|---|---|
| 1777082307 | 17.78° C | 92% | 1008.2 hPa | 0 mm | - | 0 W/m² | - |
| 1777082001 | 18.33° C | 92% | 1008.2 hPa | 0 mm | - | 0 W/m² | - |
| 1777081697 | 18.33° C | 91% | 1008.1 hPa | 0 mm | - | 0 W/m² | - |
| 1777081393 | 18.33° C | 91% | 1008.2 hPa | 0 mm | - | 0 W/m² | - |
| 1777081089 | 18.33° C | 91% | 1008 hPa | 0 mm | - | 0 W/m² | - |
| 1777080788 | 18.33° C | 91% | 1008.1 hPa | 0 mm | - | 0 W/m² | - |
| 1777080484 | 18.89° C | 90% | 1008.1 hPa | 0 mm | - | 0 W/m² | - |
| 1777080178 | 18.89° C | 90% | 1008.2 hPa | 0 mm | - | 0 W/m² | - |
| 1777079877 | 18.89° C | 90% | 1008.2 hPa | 0 mm | - | 0 W/m² | - |
| 1777079573 | 18.89° C | 91% | 1008.2 hPa | 0 mm | - | 0 W/m² | - |
| 1777079268 | 18.89° C | 90% | 1007.9 hPa | 0 mm | - | 1 W/m² | - |
| 1777078964 | 18.89° C | 89% | 1007.8 hPa | 0 mm | - | 2 W/m² | - |
| 1777078661 | 19.44° C | 89% | 1007.8 hPa | 0 mm | - | 3 W/m² | - |
| 1777078359 | 19.44° C | 89% | 1007.7 hPa | 0 mm | - | 7 W/m² | - |
| 1777078057 | 19.44° C | 89% | 1007.6 hPa | 0 mm | - | 9 W/m² | - |
| 1777077753 | 19.44° C | 89% | 1007.5 hPa | 0 mm | - | 11 W/m² | - |
| 1777077451 | 19.44° C | 88% | 1007.5 hPa | 0 mm | - | 15 W/m² | - |
| 1777077150 | 20° C | 88% | 1007.4 hPa | 0 mm | - | 18 W/m² | - |
| 1777076845 | 20° C | 89% | 1007.4 hPa | 0 mm | - | 17 W/m² | - |
| 1777076541 | 20° C | 88% | 1007.5 hPa | 0 mm | - | 17 W/m² | - |
| 1777076236 | 20.56° C | 87% | 1007.3 hPa | 0 mm | - | 19 W/m² | - |
| 1777075932 | 20.56° C | 87% | 1007.2 hPa | 0 mm | - | 23 W/m² | - |
| 1777075629 | 20.56° C | 86% | 1007.1 hPa | 0 mm | - | 27 W/m² | - |
| 1777075324 | 20.56° C | 86% | 1007 hPa | 0 mm | - | 28 W/m² | - |
| 1777075021 | 20.56° C | 86% | 1007 hPa | 0 mm | - | 30 W/m² | - |
* Rain latest hour (hover to see other rain measurements)
** Current wind speed in m/s (hover to see current wind gust speed)